DW0868 Weather Reports


time (UTC)temp
C
wind
direction
speed
KPH
gust
KPH
rain 1hr
cm
rain 24hr
cm
rain mn
cm
humidity
%
barometer
mb
20260505070016 10 269 11.3 0.0 0.00 0.00 0.00 85 1010.9
20260505064514 10 254 11.3 0.0 0.00 0.00 0.00 85 1010.9
20260505063014 10 258 12.9 0.0 0.00 0.00 0.00 85 1010.9
20260505061512 10 275 11.3 0.0 0.00 0.00 0.00 85 1011.0
20260505060024 10 227 12.9 0.0 0.00 0.00 0.00 85 1011.0
20260505054518 10 252 14.5 0.0 0.00 0.00 0.00 85 1011.0
20260505053010 10 282 16.1 0.0 0.00 0.00 0.00 85 1010.8
20260505051507 10 246 14.5 0.0 0.00 0.00 0.00 85 1010.9
20260505041501 10 252 14.5 0.0 0.00 0.00 0.00 84 1011.3
20260505034558 10 294 16.1 0.0 0.00 0.00 0.00 83 1011.4
20260505033114 10 240 16.1 0.0 0.00 0.00 0.00 83 1011.4
20260505031557 10 242 14.5 0.0 0.00 0.00 0.00 82 1011.5
20260505030056 11 251 16.1 0.0 0.00 0.00 0.00 82 1011.5
20260505024604 11 251 16.1 0.0 0.00 0.00 0.00 81 1011.5
20260505023105 11 240 17.7 0.0 0.00 0.00 0.00 80 1011.5
20260505021555 11 275 19.3 0.0 0.00 0.00 0.00 80 1011.6
20260505020053 11 263 22.5 0.0 0.00 0.00 0.00 79 1011.5
20260505014551 11 275 22.5 0.0 0.00 0.00 0.00 78 1011.3
20260505013048 11 280 20.9 0.0 0.00 0.00 0.00 78 1011.1
20260505011555 11 269 20.9 0.0 0.00 0.00 0.00 76 1011.0
20260505010047 11 274 22.5 0.0 0.00 0.00 0.00 76 1010.8
20260505004550 11 267 22.5 0.0 0.00 0.00 0.00 74 1010.5
20260505003045 11 273 22.5 0.0 0.00 0.00 0.00 72 1010.4
20260505001545 11 221 22.5 0.0 0.00 0.00 0.00 70 1010.2
20260505000047 11 223 20.9 0.0 0.00 0.00 0.00 71 1010.0
20260504234610 11 273 20.9 0.0 0.00 0.00 0.00 71 1009.9
20260504233046 11 281 20.9 0.0 0.00 0.00 0.00 71 1009.7
20260504231552 11 253 22.5 0.0 0.00 0.00 0.00 70 1009.6
20260504230042 11 268 22.5 0.0 0.00 0.00 0.00 71 1009.5
20260504224542 12 230 24.1 0.0 0.00 0.00 0.00 71 1009.4
20260504223042 12 296 24.1 0.0 0.00 0.00 0.00 68 1009.3
20260504221544 12 250 24.1 0.0 0.00 0.00 0.00 68 1009.3
20260504220041 12 243 22.5 0.0 0.00 0.00 0.00 68 1009.3
20260504214544 12 282 24.1 0.0 0.00 0.00 0.00 67 1009.4
20260504213046 13 281 24.1 0.0 0.00 0.00 0.00 65 1009.2
20260504211539 13 264 25.7 0.0 0.00 0.00 0.00 65 1009.3
20260504210047 13 306 27.4 0.0 0.00 0.00 0.00 65 1009.2
20260504204617 13 266 25.7 0.0 0.00 0.00 0.00 63 1009.2
20260504203038 14 313 24.1 0.0 0.00 0.00 0.00 63 1009.0
20260504201537 13 223 27.4 0.0 0.00 0.00 0.00 62 1009.0
20260504200040 15 282 25.7 0.0 0.00 0.00 0.00 57 1008.9
20260504194545 15 254 24.1 0.0 0.00 0.00 0.00 56 1009.0
20260504193034 15 251 24.1 0.0 0.00 0.00 0.00 62 1009.2
20260504191534 15 251 24.1 0.0 0.00 0.00 0.00 60 1009.3
20260504190037 16 260 22.5 0.0 0.00 0.00 0.00 54 1009.4
20260504184533 16 260 22.5 0.0 0.00 0.00 0.00 58 1009.4
20260504183032 16 287 22.5 0.0 0.00 0.00 0.00 55 1009.5
20260504181532 15 277 24.1 0.0 0.00 0.00 0.00 63 1009.3
20260504180032 15 240 24.1 0.0 0.00 0.00 0.00 63 1009.2
20260504174532 15 254 22.5 0.0 0.00 0.00 0.00 63 1009.2
20260504173030 15 266 22.5 0.0 0.00 0.00 0.00 59 1009.5
20260504171539 15 274 22.5 0.0 0.00 0.00 0.00 60 1009.4
20260504081531 7 266 6.4 0.0 0.00 0.00 0.00 67 1010.5